This demonstration page uses our WeatherBlox Daily Observations layout. Learn more.

Hourly Observations for August 16, 2019

Temp ( °F °C ) Dew Point ( °F °C ) Humidity (%) Winds ( mph kmh ) Pressure ( in mb ) Visibility ( mi km ) Precip ( " mm )
12:15 am 00:15 Clear with Mist and Fog 64 17.8 64 17.8 100 100 ENE 3 6 29.91 1013 5 8.04672 0 0
12:35 am 00:35 Mostly Cloudy with Mist and Fog 64 17.7 64 17.7 100 100 Calm 29.91 1013 1.75 2.816352 0 0
12:55 am 00:55 Mostly Cloudy with Mist and Fog 62 16.9 62 16.9 100 100 E 7 11 29.91 1013 0.75 1.207008 0 0
1:15 am 01:15 Cloudy with Fog 66 18.8 66 18.8 100 100 E 8 13 29.88 1012 0.5 0.804672 0 0
1:35 am 01:35 Cloudy with Light Drizzle 66 18.7 66 18.7 100 100 E 8 13 29.91 1013 0.25 0.402336 0 0
1:55 am 01:55 Cloudy with Fog 65 18.5 65 18.5 100 100 SE 8 13 29.91 1013 0.5 0.804672 0 0
2:15 am 02:15 Cloudy with Fog 65 18.5 65 18.5 100 100 ESE 9 15 29.91 1013 0.5 0.804672 0 0
2:35 am 02:35 Cloudy with Mist and Fog 65 18.5 65 18.5 100 100 SE 6 9 29.91 1013 0.75 1.207008 0 0
2:55 am 02:55 Cloudy with Mist and Fog 65 18.6 65 18.6 100 100 ESE 3 6 29.91 1013 0.75 1.207008 0 0
3:15 am 03:15 Cloudy with Nearby Thunderstorms 65 18.5 65 18.5 100 100 Calm 29.91 1013 1 1.609344 0 0
3:35 am 03:35 Cloudy with Mist and Fog 65 18.5 65 18.5 100 100 Calm 29.91 1013 2.5 4.02336 0 0
3:55 am 03:55 Cloudy with Mist and Fog 65 18.2 65 18.2 100 100 Calm 29.91 1013 2.5 4.02336 0 0
4:15 am 04:15 Cloudy with Mist and Fog 65 18.1 65 18.1 100 100 S 5 7 29.88 1012 1.5 2.414016 0 0
4:35 am 04:35 Cloudy with Fog 64 18 64 18 100 100 Calm 29.88 1012 0.5 0.804672 0 0
4:55 am 04:55 Cloudy with Mist and Fog 64 18 64 18 100 100 Calm 29.91 1013 2 3.218688 0 0
5:15 am 05:15 Cloudy with Mist and Fog 65 18.2 65 18.2 100 100 N 6 9 29.94 1014 2.5 4.02336 0 0
5:35 am 05:35 Cloudy with Light Rain 65 18.2 65 18.2 100 100 NNE 9 15 29.94 1014 2.5 4.02336 0 0
5:55 am 05:55 Cloudy with Mist and Fog 64 18 64 18 100 100 N 3 6 29.91 1013 2.5 4.02336 0 0
6:15 am 06:15 Cloudy with Mist and Fog 65 18.2 65 18.2 100 100 NW 10 17 30 1016 3 4.828032 0 0
6:35 am 06:35 Cloudy with Light Rain 65 18.5 65 18.5 100 100 N 10 17 30 1016 3 4.828032 0.01 0.254
6:55 am 06:55 Cloudy 65 18.6 65 18.6 100 100 NNW 7 11 30.03 1017 4 6.437376 0.01 0.254
7:15 am 07:15 Cloudy with Light Drizzle 65 18.5 65 18.5 100 100 NNE 6 9 30 1016 5 8.04672 0 0
7:35 am 07:35 Cloudy with Light Rain 64 18 64 18 100 100 E 12 19 29.94 1014 10 16.09344 0.02 0.508
7:55 am 07:55 Mostly Cloudy with Light Rain 65 18.1 64 17.5 96 96 ENE 17 28 29.88 1012 10 16.09344 0.02 0.508
8:15 am 08:15 Sunny 65 18.5 62 16.4 88 88 E 15 24 29.85 1011 10 16.09344 0 0
8:35 am 08:35 Sunny 65 18.4 61 16 86 86 E 12 19 29.85 1011 10 16.09344 0 0
8:55 am 08:55 Sunny 67 19.4 61 16 81 81 ENE 8 13 29.83 1010 10 16.09344 0 0
9:15 am 09:15 Sunny 69 20.5 60 15.8 75 75 ENE 6 9 29.85 1011 10 16.09344 0 0
9:35 am 09:35 Partly Cloudy 68 20.2 62 16.6 80 80 ENE 5 7 29.85 1011 10 16.09344 0 0
9:55 am 09:55 Partly Cloudy 71 21.7 62 16.7 73 73 E 6 9 29.85 1011 10 16.09344 0 0
10:15 am 10:15 Sunny 73 22.6 62 16.6 69 69 ESE 7 11 29.83 1010 10 16.09344 0 0
10:35 am 10:35 Sunny 74 23.1 60 15.7 63 63 E 5 7 29.85 1011 10 16.09344 0 0
10:55 am 10:55 Sunny 75 23.7 59 15.2 59 59 ESE 8 13 29.83 1010 10 16.09344 0 0
11:15 am 11:15 Sunny 75 24 59 15.1 58 58 SE 7 11 29.83 1010 10 16.09344 0 0
11:35 am 11:35 Sunny 76 24.6 60 15.4 57 57 SE 8 13 29.83 1010 10 16.09344 0 0
11:55 am 11:55 Sunny 77 25.1 60 15.6 56 56 S 8 13 29.85 1011 10 16.09344 0 0
12:15 pm 12:15 Sunny 78 25.6 61 16.1 56 56 SSE 7 11 29.85 1011 10 16.09344 0 0
12:35 pm 12:35 Sunny 79 26 63 17 58 58 ESE 5 7 29.85 1011 10 16.09344 0 0
12:55 pm 12:55 Sunny 79 26.2 63 17.2 58 58 ENE 6 9 29.85 1011 10 16.09344 0 0
1:15 pm 13:15 Sunny 80 26.4 63 17.4 58 58 ENE 9 15 29.85 1011 10 16.09344 0 0
1:35 pm 13:35 Sunny 80 26.4 64 17.8 59 59 E 6 9 29.8 1009 10 16.09344 0 0
1:55 pm 13:55 Sunny 80 26.5 64 17.5 58 58 E 6 9 29.8 1009 10 16.09344 0 0
2:15 pm 14:15 Sunny 81 27 64 17.9 58 58 SE 7 11 29.77 1008 10 16.09344 0 0
2:35 pm 14:35 Sunny 81 27 65 18.6 60 60 ESE 8 13 29.77 1008 10 16.09344 0 0
2:55 pm 14:55 Sunny 81 27.1 65 18.2 58 58 ESE 9 15 29.77 1008 10 16.09344 0 0
3:15 pm 15:15 Sunny 81 27.1 65 18.4 59 59 E 9 15 29.77 1008 10 16.09344 0 0
3:35 pm 15:35 Sunny 81 27.4 65 18.6 59 59 ESE 7 11 29.77 1008 10 16.09344 0 0
3:55 pm 15:55 Sunny 82 27.5 67 19.2 61 61 ESE 7 11 29.77 1008 10 16.09344 0 0
4:15 pm 16:15 Sunny 81 27.3 66 19.1 61 61 ESE 7 11 29.77 1008 10 16.09344 0 0
4:35 pm 16:35 Sunny 82 27.6 67 19.4 61 61 ESE 7 11 29.74 1007 10 16.09344 0 0
4:55 pm 16:55 Sunny 81 27.4 67 19.6 62 62 E 9 15 29.74 1007 10 16.09344 0 0
5:15 pm 17:15 Sunny 81 27.2 67 19.4 62 62 ESE 12 19 29.74 1007 10 16.09344 0 0
5:35 pm 17:35 Sunny 81 27.2 67 19.6 63 63 ESE 9 15 29.74 1007 10 16.09344 0 0
5:55 pm 17:55 Sunny 81 27 67 19.5 64 64 E 9 15 29.74 1007 10 16.09344 0 0
6:15 pm 18:15 Sunny 80 26.9 67 19.6 64 64 ESE 12 19 29.71 1006 10 16.09344 0 0
6:35 pm 18:35 Sunny 80 26.5 67 19.4 65 65 E 10 17 29.71 1006 10 16.09344 0 0
6:55 pm 18:55 Sunny 79 26.2 67 19.6 67 67 E 8 13 29.71 1006 10 16.09344 0 0
7:15 pm 19:15 Sunny 78 25.6 68 20.2 72 72 E 9 15 29.71 1006 10 16.09344 0 0
7:35 pm 19:35 Sunny 76 24.5 69 20.6 79 79 E 7 11 29.74 1007 10 16.09344 0 0
7:55 pm 19:55 Sunny 75 23.7 69 20.7 83 83 ENE 6 9 29.77 1008 10 16.09344 0 0
8:15 pm 20:15 Partly Cloudy 74 23.1 70 21 88 88 ENE 6 9 29.77 1008 10 16.09344 0 0
8:35 pm 20:35 Cloudy 73 23 70 21.2 90 90 ENE 5 7 29.77 1008 10 16.09344 0 0
8:55 pm 20:55 Mostly Cloudy 73 22.5 69 20.8 90 90 E 7 11 29.77 1008 10 16.09344 0 0
9:15 pm 21:15 Cloudy 73 22.6 69 20.7 89 89 Calm 29.77 1008 10 16.09344 0 0
9:35 pm 21:35 Cloudy 73 22.5 70 20.9 91 91 Calm 29.8 1009 10 16.09344 0 0
9:55 pm 21:55 Mostly Cloudy 73 22.6 70 20.9 90 90 ESE 15 24 29.77 1008 10 16.09344 0 0
10:15 pm 22:15 Mostly Cloudy 73 22.7 70 21 90 90 E 9 15 29.77 1008 10 16.09344 0 0
10:35 pm 22:35 Mostly Cloudy 72 22.2 70 21 93 93 E 9 15 29.77 1008 10 16.09344 0 0
10:55 pm 22:55 Cloudy 72 22.4 70 21.2 93 93 E 9 15 29.8 1009 10 16.09344 0 0
11:15 pm 23:15 Cloudy 72 22.3 70 21.2 94 94 E 6 9 29.85 1011 10 16.09344 0 0
11:35 pm 23:35 Mostly Cloudy 72 22.3 70 21.3 94 94 ENE 9 15 29.85 1011 10 16.09344 0 0
11:55 pm 23:55 Partly Cloudy 71 21.6 70 21.1 97 97 NE 9 15 29.85 1011 10 16.09344 0 0

Powered by AerisWeather